• In Österreich
  • Länderverzeichnis
  • Für 7 Tage
  • Wassertemperatur
  • Satellitenkarten
  • Wetterkarte
  • News
  • Widgets
  • user-avatar
    Anmelden

    Stündliche Wetter Lankaran

    Heute, 16 August, Donnerstag

    Zeit Temperatur Niederschläge Wind Luftdruck Luftfeuchtigkeit
    00:00 +14°C° 0 mm 1 m/S 635 mmHg 75%
    01:00 +14°C° 0 mm 1 m/S 635 mmHg 76%
    02:00 +14°C° 0 mm 1 m/S 635 mmHg 76%
    03:00 +14°C° 0 mm 1 m/S 635 mmHg 77%
    04:00 +14°C° 0 mm 1 m/S 635 mmHg 75%
    05:00 +15°C° 0 mm 1 m/S 635 mmHg 74%
    06:00 +15°C° 0 mm 1 m/S 635 mmHg 72%
    07:00 +17°C° 0 mm 2 m/S 636 mmHg 65%
    08:00 +19°C° 0 mm 2 m/S 636 mmHg 57%
    09:00 +21°C° 0 mm 3 m/S 637 mmHg 50%
    10:00 +24°C° 0 mm 3 m/S 637 mmHg 46%
    11:00 +25°C° 0 mm 3 m/S 637 mmHg 43%
    12:00 +26°C° 0 mm 3 m/S 637 mmHg 39%
    13:00 +26°C° 0 mm 3 m/S 636 mmHg 40%
    14:00 +26°C° 0 mm 3 m/S 636 mmHg 41%
    15:00 +27°C° 0 mm 3 m/S 636 mmHg 41%
    16:00 +25°C° 0 mm 3 m/S 635 mmHg 47%
    17:00 +24°C° 0 mm 3 m/S 635 mmHg 53%
    18:00 +23°C° 0 mm 2 m/S 634 mmHg 59%
    19:00 +20°C° 0 mm 2 m/S 634 mmHg 63%
    20:00 +20°C° 0 mm 1 m/S 634 mmHg 68%
    21:00 +19°C° 0 mm 1 m/S 634 mmHg 73%
    22:00 +19°C° 0 mm 1 m/S 634 mmHg 72%
    23:00 +18°C° 0 mm 1 m/S 634 mmHg 70%

    Morgen, 17 August, Freitag

    Zeit Temperatur Niederschläge Wind Luftdruck Luftfeuchtigkeit
    00:00 +18°C° 0 mm 1 m/S 634 mmHg 69%
    01:00 +18°C° 0 mm 1 m/S 634 mmHg 68%
    02:00 +18°C° 0 mm 1 m/S 633 mmHg 67%
    03:00 +18°C° 0 mm 1 m/S 633 mmHg 66%
    04:00 +18°C° 0 mm 1 m/S 633 mmHg 64%
    05:00 +19°C° 0 mm 1 m/S 633 mmHg 63%
    06:00 +19°C° 0 mm 1 m/S 634 mmHg 61%
    07:00 +21°C° 0 mm 1 m/S 634 mmHg 54%
    08:00 +23°C° 0 mm 2 m/S 635 mmHg 47%
    09:00 +25°C° 0 mm 2 m/S 635 mmHg 40%
    10:00 +27°C° 0 mm 3 m/S 635 mmHg 37%
    11:00 +28°C° 0 mm 3 m/S 635 mmHg 34%
    12:00 +29°C° 0 mm 3 m/S 635 mmHg 31%
    13:00 +29°C° 0 mm 3 m/S 635 mmHg 32%
    14:00 +29°C° 0 mm 3 m/S 634 mmHg 33%
    15:00 +29°C° 0 mm 3 m/S 634 mmHg 33%
    16:00 +28°C° 0 mm 3 m/S 633 mmHg 39%
    17:00 +26°C° 0 mm 3 m/S 633 mmHg 45%
    18:00 +25°C° 0 mm 2 m/S 632 mmHg 50%
    19:00 +23°C° 0 mm 2 m/S 632 mmHg 55%
    20:00 +22°C° 0 mm 1 m/S 632 mmHg 60%
    21:00 +21°C° 0 mm 1 m/S 632 mmHg 65%
    22:00 +20°C° 0 mm 1 m/S 632 mmHg 64%
    23:00 +20°C° 0 mm 1 m/S 632 mmHg 63%

    übermorgen, 18 August, Samstag

    Zeit Temperatur Niederschläge Wind Luftdruck Luftfeuchtigkeit
    00:00 +18°C° 0 mm 0 m/S 631 mmHg 62%
    01:00 +19°C° 0 mm 1 m/S 631 mmHg 62%
    02:00 +19°C° 0 mm 1 m/S 631 mmHg 61%
    03:00 +19°C° 0 mm 1 m/S 631 mmHg 61%
    04:00 +19°C° 0 mm 1 m/S 631 mmHg 60%
    05:00 +19°C° 0 mm 1 m/S 631 mmHg 59%
    06:00 +20°C° 0 mm 1 m/S 631 mmHg 58%
    07:00 +22°C° 0 mm 1 m/S 632 mmHg 52%
    08:00 +24°C° 0 mm 2 m/S 633 mmHg 46%
    09:00 +26°C° 0 mm 2 m/S 633 mmHg 39%
    10:00 +27°C° 0 mm 3 m/S 633 mmHg 37%
    11:00 +28°C° 0 mm 3 m/S 633 mmHg 35%
    12:00 +29°C° 0 mm 4 m/S 633 mmHg 33%
    13:00 +29°C° 0 mm 4 m/S 632 mmHg 35%
    14:00 +29°C° 0 mm 4 m/S 632 mmHg 37%
    15:00 +29°C° 0 mm 4 m/S 631 mmHg 39%
    16:00 +27°C° 0 mm 3 m/S 631 mmHg 46%
    17:00 +25°C° 0 mm 3 m/S 631 mmHg 53%
    18:00 +24°C° 0 mm 3 m/S 630 mmHg 61%
    19:00 +21°C° 0 mm 3 m/S 630 mmHg 66%
    20:00 +20°C° 0 mm 2 m/S 630 mmHg 72%
    21:00 +18°C° 0 mm 2 m/S 630 mmHg 78%
    22:00 +18°C° 0 mm 2 m/S 630 mmHg 76%
    23:00 +18°C° 0 mm 2 m/S 630 mmHg 75%

    19 August, Sonntag

    Zeit Temperatur Niederschläge Wind Luftdruck Luftfeuchtigkeit
    00:00 +17°C° 0 mm 2 m/S 630 mmHg 73%
    01:00 +17°C° 0 mm 3 m/S 630 mmHg 75%
    02:00 +16°C° 0 mm 3 m/S 630 mmHg 77%
    03:00 +16°C° 0 mm 3 m/S 630 mmHg 79%
    04:00 +16°C° 0 mm 3 m/S 631 mmHg 78%
    05:00 +16°C° 0 mm 3 m/S 631 mmHg 77%
    06:00 +16°C° 0 mm 3 m/S 631 mmHg 76%
    07:00 +18°C° 0 mm 3 m/S 632 mmHg 66%
    08:00 +20°C° 0 mm 3 m/S 633 mmHg 55%
    09:00 +22°C° 0 mm 3 m/S 633 mmHg 44%
    10:00 +23°C° 0 mm 4 m/S 633 mmHg 42%
    11:00 +25°C° 0 mm 4 m/S 634 mmHg 39%
    12:00 +26°C° 0 mm 4 m/S 634 mmHg 36%
    13:00 +26°C° 0 mm 5 m/S 633 mmHg 38%
    14:00 +25°C° 0 mm 5 m/S 633 mmHg 40%
    15:00 +24°C° 0 mm 6 m/S 633 mmHg 41%
    16:00 +22°C° 0 mm 6 m/S 633 mmHg 49%
    17:00 +21°C° 0 mm 5 m/S 633 mmHg 56%
    18:00 +19°C° 0 mm 5 m/S 633 mmHg 64%
    19:00 +18°C° 0 mm 4 m/S 633 mmHg 69%
    20:00 +17°C° 0 mm 3 m/S 633 mmHg 73%
    21:00 +16°C° 0 mm 3 m/S 633 mmHg 78%
    22:00 +14°C° 0 mm 3 m/S 633 mmHg 80%
    23:00 +14°C° 0 mm 3 m/S 633 mmHg 81%

    20 August, Montag

    Zeit Temperatur Niederschläge Wind Luftdruck Luftfeuchtigkeit
    00:00 +14°C° 0 mm 3 m/S 633 mmHg 82%
    01:00 +14°C° 0 mm 3 m/S 633 mmHg 83%
    02:00 +13°C° 0 mm 3 m/S 633 mmHg 85%
    03:00 +13°C° 0 mm 3 m/S 633 mmHg 86%
    04:00 +13°C° 0 mm 3 m/S 634 mmHg 86%
    05:00 +13°C° 0 mm 3 m/S 634 mmHg 85%
    06:00 +14°C° 0 mm 3 m/S 634 mmHg 85%
    07:00 +16°C° 0 mm 3 m/S 635 mmHg 79%
    08:00 +17°C° 0 mm 3 m/S 635 mmHg 73%
    09:00 +18°C° 0 mm 4 m/S 635 mmHg 67%
    10:00 +20°C° 0 mm 4 m/S 635 mmHg 61%
    11:00 +21°C° 0 mm 4 m/S 636 mmHg 56%
    12:00 +22°C° 0 mm 4 m/S 636 mmHg 50%
    13:00 +22°C° 0 mm 4 m/S 635 mmHg 52%
    14:00 +22°C° 0 mm 4 m/S 635 mmHg 53%
    15:00 +22°C° 0 mm 4 m/S 635 mmHg 55%
    16:00 +21°C° 0 mm 4 m/S 635 mmHg 61%
    17:00 +20°C° 0 mm 3 m/S 635 mmHg 68%
    18:00 +18°C° 0 mm 3 m/S 634 mmHg 74%
    19:00 +18°C° 0 mm 2 m/S 635 mmHg 77%
    20:00 +17°C° 0 mm 2 m/S 635 mmHg 80%
    21:00 +16°C° 0 mm 1 m/S 635 mmHg 84%
    22:00 +16°C° 0 mm 1 m/S 635 mmHg 85%
    23:00 +16°C° 0 mm 1 m/S 635 mmHg 85%

    21 August, Dienstag

    Zeit Temperatur Niederschläge Wind Luftdruck Luftfeuchtigkeit
    00:00 +15°C° 0 mm 1 m/S 635 mmHg 86%
    01:00 +15°C° 0 mm 1 m/S 634 mmHg 87%
    02:00 +15°C° 0 mm 1 m/S 634 mmHg 88%
    03:00 +15°C° 0 mm 1 m/S 634 mmHg 88%
    04:00 +15°C° 0 mm 1 m/S 634 mmHg 87%
    05:00 +15°C° 0 mm 1 m/S 635 mmHg 86%
    06:00 +15°C° 0 mm 1 m/S 635 mmHg 85%
    07:00 +17°C° 0 mm 2 m/S 635 mmHg 74%
    08:00 +19°C° 0 mm 2 m/S 636 mmHg 63%
    09:00 +21°C° 0 mm 3 m/S 636 mmHg 52%
    10:00 +22°C° 0 mm 3 m/S 636 mmHg 48%
    11:00 +24°C° 0 mm 3 m/S 636 mmHg 43%
    12:00 +25°C° 0 mm 4 m/S 636 mmHg 39%
    13:00 +26°C° 0 mm 4 m/S 636 mmHg 38%
    14:00 +26°C° 0 mm 4 m/S 636 mmHg 37%
    15:00 +26°C° 0 mm 4 m/S 636 mmHg 37%
    16:00 +24°C° 0 mm 3 m/S 635 mmHg 40%
    17:00 +22°C° 0 mm 3 m/S 635 mmHg 44%
    18:00 +20°C° 0 mm 3 m/S 635 mmHg 47%
    19:00 +19°C° 0 mm 2 m/S 635 mmHg 50%
    20:00 +18°C° 0 mm 2 m/S 635 mmHg 54%
    21:00 +16°C° 0 mm 2 m/S 635 mmHg 57%
    22:00 +16°C° 0 mm 2 m/S 635 mmHg 54%
    23:00 +16°C° 0 mm 2 m/S 635 mmHg 52%
    Mehr zeigen